NOAA 17 DEB, 48745

Orbit data source: Space-Track

NOAA 17 DEB, 48745 is space debris in SSO originally from a launch on Mon, 24 Jun 2002 UTC launched from the Air Force Western Test Range (AFWTR). Debris objects in space refer to the collection of defunct objects orbiting the Earth. Examples of debris include non-operational satellites, rocket bodies, and fragments generated from explosions, collisions, or faulty payload assembly.

Loading next visibility...
Identifier
48745, 2002-032CE
Orbit
SSO
Country
Flag of USUS
Related business
Manufacturer
Unknown
Mission
Spacecraft
Bus & Motor
Unknown
Mass
Unknown
Launch date (UTC)
2002-06-24 (24 years ago)
Launch vehicle
Unknown
Launch site
Air Force Western Test Range (AFWTR)
Object type
Payload
Rocket body
Debris
Shape & HBR
Unknown shape, 0.1 m
Radar Cross Section
Medium (>0.1 m² and <1 m²)

Expand to show TLE details & history
Last TLE update: 2 days ago

TLE from 2 days ago
0 NOAA 17 DEB
1 48745U 02032CE  26171.26970188  .00827602  00000-0  87170-2 0  9993
2 48745  98.8331 281.0574 0024132 267.4832  92.3658 15.61348388279067
Epoch: 2026-06-20T06:28Z
TLE epoch observation values (Epoch: 2026-06-20T06:28:22.242Z)
Latitude
-0.00005°
Longitude
-84.52201°
Altitude
387.575 km
Speed
7.677 km/s
True Right ascension
18h 44m 13s
True Declination
0° 00' 00"
Sunlit
Object was in full shadow at epoch
Visualization orbit readout
Latitude
Unknown
Longitude
Unknown
Altitude
Unknown
Speed
Unknown
Apparent Right ascension
Unknown
Apparent Declination
Unknown
Sunlit
N/A
Visualization observer readout
Local Sidereal Time
21:34:48
Azimuth
Unknown
Elevation
Unknown
Doppler factor
Unknown
Orbital elements
Apogee altitude
397.051 km
Perigee altitude
364.43 km
Semi-major axis
6,758.877 km
Eccentricity
0.00241
Inclination
98.8331°
RAAN
281.0574°
Arg. of periapsis
267.4832°
True anomaly
92.64206°
Mean anomaly
92.3658°
Eccentric anomaly
92.50393°
Mean motion
3.90599 °/min
Orbital period
92.17 mins
BSTAR
0.008717
Loading maneuver chart data...
Computing Atmospheric mass density...

Documentation

Showing up to 5 results
|